Montgomery, NY

3:37 AM EST on February 23, 2017 (GMT -0500)
Orange County

Weather History for KMGJ - November, 2012

Change the Weather History Date:

Wednesday, November 21, 2012

  Actual Average (KSWF) Record (KSWF)
Temperature  
Mean Temperature 40 °F -  
Max Temperature 53 °F 46 °F 74 °F (1985)
Min Temperature 27 °F 30 °F 11 °F (1980)
Degree Days  
Heating Degree Days 25    
Moisture  
Dew Point 26 °F    
Average Humidity 70    
Maximum Humidity 92    
Minimum Humidity 31    
Precipitation  
Precipitation 0.00 in - - ()
Sea Level Pressure  
Sea Level Pressure 30.21 in    
Wind  
Wind Speed 1 mph (NNE)    
Max Wind Speed 6 mph    
Max Gust Speed -    
Visibility 10 miles    
Events      
Averages and records for this station are not official NWS values.
T = Trace of Precipitation, MM = Missing Value Source: NWS Daily Summary

Daily Weather History Graph

Daily Weather History Graph

Search for Another Location

Airport or City:

Trip Planner

Search our weather history database for the weather conditions in past years. The results will help you decide how hot, cold, wet, or windy it might be!

Date:

Astronomy

Nov. 21, 2012 Rise Set
Actual Time 6:53 AM EST 4:32 PM EST
Civil Twilight 6:23 AM EST 5:02 PM EST
Nautical Twilight 5:49 AM EST 5:36 PM EST
Astronomical Twilight 5:16 AM EST 6:09 PM EST
Moon 12:51 PM EST (11/21) 12:05 AM EST (11/21)
Length of Visible Light 10h 39m
Length of Day
9h 38m
First Quarter, 61% of the Moon is Illuminated
Nov 21
First Quarter
Nov 28
Full
Dec 6
Last Quarter
Dec 13
New
Dec 20
First Quarter

Hourly Weather History & Observations

Time (EST) Temp. Windchill Dew Point Humidity Pressure Visibility Wind Dir Wind Speed Gust Speed Precip Events Conditions
12:54 AM 28.9 °F - 26.1 °F 89% 30.16 in 10.0 mi Calm Calm - N/A   Clear
1:54 AM 28.0 °F - 25.0 °F 88% 30.16 in 9.0 mi Calm Calm - N/A   Clear
2:54 AM 28.9 °F - 27.0 °F 92% 30.17 in 10.0 mi Calm Calm - N/A   Clear
3:54 AM 28.9 °F - 27.0 °F 92% 30.18 in 10.0 mi Calm Calm - N/A   Clear
4:54 AM 30.0 °F - 27.0 °F 88% 30.19 in 10.0 mi Calm Calm - N/A   Clear
5:54 AM 28.9 °F - 27.0 °F 92% 30.21 in 10.0 mi Calm Calm - N/A   Clear
6:54 AM 30.0 °F - 27.0 °F 88% 30.23 in 10.0 mi Calm Calm - N/A   Clear
7:54 AM 32.0 °F - 28.0 °F 85% 30.24 in 9.0 mi Calm Calm - N/A   Clear
8:54 AM 36.0 °F - 30.9 °F 82% 30.24 in 9.0 mi Calm Calm - N/A   Clear
9:54 AM 42.1 °F 40.2 °F 30.9 °F 65% 30.25 in 10.0 mi North 3.5 mph - N/A   Clear
10:54 AM 46.9 °F - 30.9 °F 54% 30.24 in 10.0 mi North 5.8 mph - N/A   Clear
11:54 AM 50.0 °F - 28.9 °F 44% 30.21 in 10.0 mi ENE 5.8 mph - N/A   Clear
12:54 PM 51.1 °F - 28.9 °F 43% 30.19 in 10.0 mi Calm Calm - N/A   Clear
1:54 PM 53.1 °F - 23.0 °F 31% 30.18 in 10.0 mi North 4.6 mph - N/A   Clear
2:54 PM 53.1 °F - 23.0 °F 31% 30.18 in 10.0 mi NE 3.5 mph - N/A   Clear
3:54 PM 50.0 °F - 23.0 °F 35% 30.19 in 10.0 mi NNE 3.5 mph - N/A   Clear
4:54 PM 39.9 °F - 25.0 °F 55% 30.20 in 10.0 mi Calm Calm - N/A   Clear
5:54 PM 36.0 °F - 26.1 °F 67% 30.22 in 10.0 mi Calm Calm - N/A   Clear
6:54 PM 32.0 °F - 24.1 °F 73% 30.23 in 10.0 mi Calm Calm - N/A   Clear
7:54 PM 30.0 °F - 23.0 °F 75% 30.25 in 10.0 mi Calm Calm - N/A   Clear
8:54 PM 28.9 °F - 23.0 °F 78% 30.25 in 10.0 mi Calm Calm - N/A   Clear
9:54 PM 28.0 °F - 21.9 °F 78% 30.25 in 10.0 mi Calm Calm - N/A   Clear
10:54 PM 27.0 °F - 23.0 °F 85% 30.25 in 10.0 mi Calm Calm - N/A   Clear
11:54 PM 27.0 °F - 21.9 °F 81% 30.25 in 10.0 mi Calm Calm - N/A   Clear